Flight Track Log - Related Links

Times and Time Zones

All times are in EDT time to prevent confusion due to time zone crossing. See the BJS439 flight status page for this flight to view local times or setup timezone preferences in your user account.

Time Position Orientation Groundspeed Altitude Reporting Facility
EDT Latitude Longitude Course Direction KTS MPH feet Rate Location/Type
Wed 02:19:43 PM 40.8167 -74.1333 201° Southwest 197 227 1,500  Level New York TRACON
Wed 02:20:43 PM 40.8000 -74.2167 255° West 251 289 3,300 1,850 Climbing New York TRACON
Wed 02:21:43 PM 40.7500 -74.2500 207° Southwest 221 254 5,200 2,895 Climbing New York TRACON
Wed 02:22:37 PM 40.6667 -74.2500 180° South 240 276 8,800 3,474 Climbing New York TRACON
Wed 02:23:37 PM 40.6000 -74.2667 191° South 271 312 11,800 2,800 Climbing New York TRACON
Wed 02:24:37 PM 40.5167 -74.2667 180° South 354 407 14,400 2,300 Climbing New York TRACON
Wed 02:25:00 PM 40.2619 -74.1607 201° Southwest  Level FlightAware Approximate
Wed 02:25:37 PM 40.4000 -74.2000 156° South 403 464 16,400  Level New York TRACON
Wed 02:26:28 PM 40.3208 -74.1711 164° South 426 490 17,000 321 Climbing New York Center
Wed 02:27:29 PM 40.2100 -74.1872 186° South 408 470 17,000 1,556 Level New York Center
Wed 02:28:43 PM 40.0828 -74.2275 194° South 385 443 20,500 2,821 Climbing Washington Center
Wed 02:29:43 PM 39.9769 -74.2731 198° South 391 450 23,300 2,450 Climbing Washington Center
Wed 02:30:43 PM 39.8864 -74.3639 218° Southwest 397 457 25,400 2,100 Climbing Washington Center
Wed 02:31:43 PM 39.7936 -74.4572 218° Southwest 417 480 27,500 1,900 Climbing Washington Center
Wed 02:32:43 PM 39.7133 -74.5692 227° Southwest 422 486 29,200 1,250 Climbing Washington Center
Wed 02:33:43 PM 39.6267 -74.6808 225° Southwest 433 498 30,000 550 Climbing Washington Center
Wed 02:34:43 PM 39.5400 -74.7950 225° Southwest 438 504 30,300 600 Climbing Washington Center
Wed 02:35:43 PM 39.4594 -74.9061 227° Southwest 438 504 31,200 1,000 Climbing Washington Center
Wed 02:36:43 PM 39.3786 -75.0089 225° Southwest 426 490 32,300 1,300 Climbing Washington Center
Wed 02:37:43 PM 39.2894 -75.1089 221° Southwest 426 490 33,800 1,550 Climbing Washington Center
Wed 02:38:43 PM 39.1750 -75.1686 202° Southwest 426 490 35,400 1,550 Climbing Washington Center
Wed 02:39:43 PM 39.0606 -75.2175 198° South 431 496 36,900 1,450 Climbing Washington Center
Wed 02:40:43 PM 38.9461 -75.2633 197° South 438 504 38,300 1,050 Climbing Washington Center
Wed 02:41:43 PM 38.8294 -75.3092 197° South 438 504 39,000 550 Climbing Washington Center
Wed 02:42:43 PM 38.7128 -75.3575 198° South 445 512 39,400 550 Climbing Washington Center
Wed 02:43:43 PM 38.5942 -75.4083 199° South 445 512 40,100 850 Climbing Washington Center
Wed 02:44:43 PM 38.4794 -75.4564 198° South 440 506 41,100 1,000 Climbing Washington Center
Wed 02:45:43 PM 38.3692 -75.4989 197° South 434 499 42,100 900 Climbing Washington Center
Wed 02:46:43 PM 38.2753 -75.5758 213° Southwest 412 474 42,900 450 Climbing Washington Center
Wed 02:47:43 PM 38.1961 -75.6603 220° Southwest 388 447 43,000 50 Climbing Washington Center
Wed 02:48:43 PM 38.1106 -75.7447 218° Southwest 398 458 43,000  Level Washington Center
Wed 02:49:43 PM 38.0206 -75.8369 219° Southwest 404 465 43,000  Level Washington Center
Wed 02:50:43 PM 37.9308 -75.9289 219° Southwest 415 478 43,000  Level Washington Center
Wed 02:51:43 PM 37.8386 -76.0178 217° Southwest 420 483 43,000  Level Washington Center
Wed 02:52:44 PM 37.7508 -76.1144 221° Southwest 420 483 43,000  Level Washington Center
Wed 02:53:43 PM 37.6481 -76.2056 215° Southwest 425 489 43,000  Level Washington Center
Wed 02:54:43 PM 37.5581 -76.2964 219° Southwest 420 483 43,000  Level Washington Center
Wed 02:55:43 PM 37.4697 -76.3819 218° Southwest 414 476 43,000  Level Washington Center
Wed 02:56:43 PM 37.3794 -76.4700 218° Southwest 414 476 43,000  Level Washington Center
Wed 02:57:43 PM 37.2892 -76.5578 218° Southwest 414 476 43,000  Level Washington Center
Wed 02:58:43 PM 37.2092 -76.6375 218° Southwest 419 482 43,000  Level Washington Center
Wed 02:59:43 PM 37.1167 -76.7275 218° Southwest 419 482 43,000  Level Washington Center
Wed 03:00:43 PM 37.0239 -76.8172 218° Southwest 419 482 43,000  Level Washington Center
Wed 03:01:43 PM 36.9333 -76.9067 218° Southwest 419 482 43,000  Level Washington Center
Wed 03:02:43 PM 36.8406 -76.9958 218° Southwest 424 488 43,000  Level Washington Center
Wed 03:03:43 PM 36.7497 -77.0850 218° Southwest 424 488 43,000  Level Washington Center
Wed 03:04:43 PM 36.6589 -77.1714 217° Southwest 424 488 43,000  Level Washington Center
Wed 03:05:43 PM 36.5681 -77.2575 217° Southwest 424 488 43,000  Level Washington Center
Wed 03:06:43 PM 36.4772 -77.3433 217° Southwest 424 488 43,000  Level Washington Center
Wed 03:07:43 PM 36.3881 -77.4292 218° Southwest 424 488 43,000  Level Washington Center
Wed 03:08:43 PM 36.2950 -77.5222 219° Southwest 413 475 43,000  Level Washington Center
Wed 03:09:44 PM 36.2039 -77.6075 217° Southwest 413 475 43,000  Level Washington Center
Wed 03:10:43 PM 36.1147 -77.6928 218° Southwest 413 475 43,000  Level Washington Center
Wed 03:11:43 PM 36.0256 -77.7750 217° Southwest 413 475 43,000  Level Washington Center
Wed 03:12:43 PM 35.9344 -77.8597 217° Southwest 413 475 43,000  Level Washington Center
Wed 03:13:43 PM 35.8431 -77.9442 217° Southwest 413 475 43,000  Level Washington Center
Wed 03:14:43 PM 35.7536 -78.0261 217° Southwest 413 475 43,000  Level Washington Center
Wed 03:15:43 PM 35.6644 -78.1103 217° Southwest 413 475 43,000  Level Washington Center
Wed 03:16:44 PM 35.5728 -78.1942 217° Southwest 413 475 43,000  Level Washington Center
Wed 03:17:43 PM 35.4792 -78.2753 215° Southwest 413 475 43,000  Level Washington Center
Wed 03:18:43 PM 35.3939 -78.3514 216° Southwest 418 481 43,000  Level Washington Center
Wed 03:19:43 PM 35.2981 -78.4397 217° Southwest 424 488 43,000  Level Washington Center
Wed 03:20:43 PM 35.2061 -78.5281 218° Southwest 424 488 43,000  Level Washington Center
Wed 03:21:43 PM 35.1144 -78.6136 217° Southwest 424 488 43,000  Level Washington Center
Wed 03:24:03 PM 34.8886 -78.8156 216° Southwest 425 489 43,000  Level Jacksonville Center
Wed 03:25:03 PM 34.7975 -78.8983 217° Southwest 420 483 43,000  Level Jacksonville Center
Wed 03:26:03 PM 34.7061 -78.9808 217° Southwest 420 483 43,000  Level Jacksonville Center
Wed 03:27:03 PM 34.6147 -79.0631 217° Southwest 420 483 43,000  Level Jacksonville Center
Wed 03:28:03 PM 34.5256 -79.1428 216° Southwest 420 483 43,000  Level Jacksonville Center
Wed 03:29:03 PM 34.4483 -79.2192 219° Southwest 415 478 43,000  Level Jacksonville Center
Wed 03:30:03 PM 34.3569 -79.3008 216° Southwest 409 471 43,000  Level Jacksonville Center
Wed 03:31:03 PM 34.2653 -79.3800 216° Southwest 409 471 43,000 -900 Level Jacksonville Center
Wed 03:32:03 PM 34.1756 -79.4539 214° Southwest 404 465 41,200 -1,600 Descending Jacksonville Center
Wed 03:33:03 PM 34.0778 -79.5406 216° Southwest 417 480 39,800 -1,500 Descending Jacksonville Center
Wed 03:34:03 PM 33.9861 -79.6242 217° Southwest 422 486 38,200 -900 Descending Jacksonville Center
Wed 03:35:03 PM 33.8983 -79.7025 217° Southwest 415 478 38,000 -150 Descending Jacksonville Center
Wed 03:36:03 PM 33.8083 -79.7783 215° Southwest 405 466 37,900  Descending Jacksonville Center
Wed 03:37:03 PM 33.7167 -79.8614 217° Southwest 405 466 38,000 -248 Climbing Jacksonville Center
Wed 03:38:04 PM 33.6225 -79.9419 215° Southwest 410 472 37,400 -1,000 Descending Jacksonville Center
Wed 03:39:03 PM 33.5306 -80.0247 217° Southwest 410 472 36,000 -706 Descending Jacksonville Center
Wed 03:40:03 PM 33.4364 -80.1050 215° Southwest 415 478 36,000 -400 Level Jacksonville Center
Wed 03:41:03 PM 33.3381 -80.1925 217° Southwest 426 490 35,200 -1,100 Descending Jacksonville Center
Wed 03:42:03 PM 33.2397 -80.2775 216° Southwest 437 503 33,800 -1,400 Descending Jacksonville Center
Wed 03:43:03 PM 33.1350 -80.3625 214° Southwest 449 517 32,400 -1,150 Descending Jacksonville Center
Wed 03:44:03 PM 33.0322 -80.4544 217° Southwest 460 529 31,500 -1,200 Descending Jacksonville Center
Wed 03:45:03 PM 32.9233 -80.5464 215° Southwest 455 524 30,000 -1,350 Descending Jacksonville Center
Wed 03:46:03 PM 32.8247 -80.6283 215° Southwest 445 512 28,800 -1,150 Descending Jacksonville Center
Wed 03:47:03 PM 32.7239 -80.7122 215° Southwest 445 512 27,700 -1,050 Descending Jacksonville Center
Wed 03:48:03 PM 32.6231 -80.7983 216° Southwest 440 506 26,700 -850 Descending Jacksonville Center
Wed 03:49:03 PM 32.5222 -80.8869 217° Southwest 450 518 26,000 -950 Descending Jacksonville Center
Wed 03:50:03 PM 32.4233 -80.9681 215° Southwest 442 509 24,800 -1,250 Descending Jacksonville Center
Wed 03:51:03 PM 32.3367 -81.0436 216° Southwest 442 509 23,500 -2,050 Descending Jacksonville Center
Wed 03:52:03 PM 32.2228 -81.1022 204° Southwest 412 474 20,700 -2,600 Descending Jacksonville Center
Wed 03:53:03 PM 32.1061 -81.1242 189° South 424 488 18,300 -2,200 Descending Jacksonville Center
Wed 03:54:03 PM 31.9958 -81.1436 189° South 417 480 16,300 -2,100 Descending Jacksonville Center
Wed 03:55:03 PM 31.8894 -81.1628 189° South 390 449 14,100 -2,050 Descending Jacksonville Center
Wed 03:56:03 PM 31.7958 -81.1839 191° South 362 417 12,200 -1,050 Descending Jacksonville Center
Wed 03:57:03 PM 31.6958 -81.2006 188° South 357 411 12,000 -750 Descending Jacksonville Center
Wed 03:58:03 PM 31.6083 -81.2167 189° South 335 386 10,700 -1,400 Descending Jacksonville Center
Wed 03:59:03 PM 31.5336 -81.2328 190° South 290 334 9,200 -1,450 Descending Jacksonville Center
Wed 04:00:03 PM 31.4669 -81.2461 190° South 255 293 7,800 -1,650 Descending Jacksonville Center
Wed 04:01:03 PM 31.4064 -81.2567 188° South 255 293 5,900 -2,000 Descending Jacksonville Center
Wed 04:02:03 PM 31.3356 -81.2678 188° South 255 293 3,800 -1,450 Descending Jacksonville Center
Wed 04:03:03 PM 31.2692 -81.2981 201° Southwest 245 282 3,000 -800 Descending Jacksonville Center

Login

Don't have an account? Register now (free) for customized features, flight alerts, and more!